CZ-6A DEB

Satellite information

Favourite Embed

Satellite Type and Status

DEBRISIN ORBIT

Key statistics

Satellite CZ-6A DEB at a glance.

Uptime

969

Days in orbit

Revolutions

≈ 14.1

Per day

Orbit

SSO

Sun Synchronous Orbit

Inclination

98.8

Latest

Satellite identification and parameters

Extended collection of information and parameters for CZ-6A DEB.

Object identification

Identified? True

Debris? True

Object name: CZ-6A DEB

International designator: 2022-151ACZ

Object number (NORAD): 56281

Object ID (CCSDS): 56281

Country: PEOPLES REPUBLIC OF CHINA (PRC)

Current information (Y/N): Y

RCS size: SMALL

Orbital parameters

Period: 101.926 minutes

Inclination: 98.813 deg

SMA: 7227.992 km

Apoapsis: 889.627 km

Periapsis: 810.087 km

RAAN: 184.8588 deg

Eccentricy: 0.0055022

Argument of periapsis: 234.5218 deg

Mean anomaly: 125.0813 deg

Mean motion: 14.12785522 rev/day

Mean motion (dot): 0.00001487 rev/day2

B* drag term: 0.00081233 1/REarth

Two-line elements (TLE)

Creation date: July 6, 2025, 6:05 p.m.

Reference frame: TEME

Reference center: EARTH

Epoch: July 6, 2025, 11:37 a.m. UTC

TLE line 0: 0 CZ-6A DEB

TLE line 1: 1 56281U 22151ACZ 25187.48449531 .00001487 00000-0 81233-3 0 9994

TLE line 2: 2 56281 98.8130 184.8588 0055022 234.5218 125.0813 14.12785522118157

Live tracking on map

Real-time ground track for satellite CZ-6A DEB.

In-orbit conjunctions

A list of the most updated potential collisions computed for object CZ-6A DEB.

Target Orbit TCA Probability of collision Miss distance Type
COSMOS 1275 DEB LEO 2025-05-16 13:52:33 0.0001595172 247.0 (m) DEBRIS
PSLV R/B SSO 2025-04-16 21:29:52 0.0007128712 21.0 (m) ROCKET BODY

Associated space launch

Chinese satellite reported for atmospheric/ocean/environmental/spatial parameter research purposes, details TBD.

CZ-6A DEB was lifted into orbit during the mission ‘Long March 6A | Yunhai 3’, on board a Long March 6A space rocket.

The launch took place on Nov. 11, 2022, 10:52 p.m. from Launch Complex 9A.

For more information about the launch, click the button.

Launch to space Long March 6A | Yunhai 3
Long March 6A | Yunhai 3

Agency: N/A

Status: Launch Successful

Launch date: Nov. 11, 2022, 10:52 p.m. UTC

Rocket: Long March 6A

Launch pad: Launch Complex 9A

Location: Taiyuan Satellite Launch Center, People's Republic of China

...

Latest news about this satellite

There are no fresh news available about this satellite. Check back as we update our databases every day.


Newsletter sign-up

Weekly statistics, charts and insights to help you stay on top of the space industry.